Weather in Sovkhozny

Russia / Udmurt Republic     56°41′08″N   53°06′25″E
temp.,
°C
wind,
m/s
gust,
m/s
humid.,
%
clouds,
%
prec.,
mm/h
press.,
hPa
HPBL,
m
5 august, thu
thu501:00+17wnw499715 3.1 1010312
04:00+15nw411962 3.1 1010336
07:00+18nw389024 0.0 1011356
10:00+22nnw46650 0.1 1011856
13:00+23nw675628 0.4 10121395
16:00+23nw565076 0.4 10121075
19:00+21nw485797 0.0 1013329
22:00+18nnw386992 0.0 1014267
6 august, fri
fri601:00+17n2378100 0.3 101556
04:00+13nnw349132 0.3 101569
07:00+15n37720 0.0 1016248
10:00+20n46410 0.0 10171286
13:00+22nnw45365 0.0 10161840
16:00+23nnw45364 0.0 10161845
19:00+19nnw2455100 0.0 101688
22:00+15n3368100 0.0 101742
7 august, sat
sat701:00+13n2270100 0.0 101715
04:00+13nnw226898 0.0 101815
07:00+15n2363100 0.0 1019179
10:00+20nw125098 0.0 1019773
13:00+19nw445493 0.0 1019618
16:00+22nw34424 0.0 10181626
19:00+19nw34605 0.0 1018108
22:00+15n22744 0.0 101911
8 august, sun
sun801:00+13n22786 0.0 102011
04:00+14ne226840 0.0 102042
07:00+15ene226491 0.0 1021157
10:00+18nne115296 0.0 1021512
13:00+22n233944 0.0 1020994
16:00+23n233998 0.0 10201009
19:00+21nnw115666 0.0 102011
22:00+17e1164100 0.0 102111
9 august, mon
mon901:00+16e226687 0.0 102114
04:00+14se227253 0.0 102118
07:00+17se2463100 0.0 1021147
10:00+21sse3448100 0.0 1020500
13:00+25s2342100 0.0 1020771
16:00+27sse2339100 0.0 1019960
19:00+24se225335 0.0 101817
22:00+19sse33577 0.0 101836